Regional Weather Roundup
Issued by NWS Charleston, SC

Current Version | Previous Version | Graphics & Text | Print | Product List | Glossary On
Versions: 1 2 3 4 5 6 7 8 9 10 11 12 13 14 15 16 17 18 19 20 21 22 23 24 25 26 27 28 29 30 31 32 33 34 35 36 37 38 39 40 41 42 43 44 45 46 47 48 49 50
000 ASUS42 KCHS 221612 RWRCHS REGIONAL WEATHER ROUNDUP NATIONAL WEATHER SERVICE CHARLESTON SC 1200 PM EDT FRI MAY 22 2015 NOTE: "FAIR" INDICATES FEW OR NO CLOUDS BELOW 12,000 FEET WITH NO SIGNIFICANT WEATHER AND/OR OBSTRUCTIONS TO VISIBILITY. NOT ALL STATIONS ARE QUALITY CONTROLLED BY THE NATIONAL WEATHER SERVICE. USE DATA WITH CAUTION...ESPECIALLY DEWPOINT OBSERVATIONS. SCZ027-030-031-034>040-042>050-221700- ...SOUTHEAST SOUTH CAROLINA... CITY SKY/WX TMP DP RH WIND PRES REMARKS N CHARLESTON PTSUNNY 73 54 51 NE12G18 30.17R WATERFRONT PAR N/A 72 58 61 N10 30.13R MOUNT PLEASANT FAIR 72 55 56 N8 30.16S JOHNS ISLAND PTSUNNY 73 55 53 NE7 30.17R PINOPOLIS NOT AVBL MONCKS CORNER FAIR 72 52 49 N7 30.18R SUMMERVILLE FAIR 72 52 49 N8 30.19R BEAUFORT MCAS PTSUNNY 75 55 49 NE9 30.17R BEAUFORT ARPT CLOUDY 73 55 53 NE9 30.17R HILTON HEAD IS PTSUNNY 73 57 56 NE8 30.18R WALTERBORO PTSUNNY 72 50 46 N12 30.19R ALLENDALE CLOUDY 72 54 53 CALM 30.18R ...SOUTHERN MIDLANDS AND PEE DEE... CITY SKY/WX TMP DP RH WIND PRES REMARKS GEORGETOWN NOT AVBL KINGSTREE NOT AVBL ORANGEBURG PTSUNNY 71 49 45 E7 30.20R BARNWELL PTSUNNY 73 52 46 NE10 30.20S AIKEN FAIR 70 43 37 NE10 30.24R MANNING FAIR 70 46 43 N10 30.20R COLUMBIA MOSUNNY 72 44 36 N8 30.21R SUMTER PTSUNNY 71 46 41 E6 30.19R FLORENCE SUNNY 70 48 45 CALM 30.19S MYRTLE BEACH PTSUNNY 70 54 56 NE12 30.19R N MYRTLE BEACH PTSUNNY 69 55 60 NE8 30.18R $$ GAZ063-065-086>088-099>101-113>116-118-119-134>141-150-221700- ...SOUTHEAST GEORGIA... CITY SKY/WX TMP DP RH WIND PRES REMARKS SAVANNAH ARPT PTSUNNY 76 60 57 E9 30.16R HUNTER AAF CLOUDY 76 61 59 E12 30.14R FORT STEWART PTSUNNY 76 60 58 VRB2 30.14R STATESBORO CLOUDY 73 63 70 E6 30.17S SYLVANIA CLOUDY 74 61 63 E8 30.19R CLAXTON PTSUNNY 73 61 64 E7 30.16S ...CSRA...CENTRAL AND FAR SOUTHEAST GEORGIA... CITY SKY/WX TMP DP RH WIND PRES REMARKS THOMSON PTSUNNY 71 55 55 NE9 30.26R AUGUSTA-BUSH PTSUNNY 73 47 39 VRB6G18 30.19R AUGUSTA-DANIEL MOSUNNY 73 47 39 E10 30.21R SWAINSBORO CLOUDY 75 59 57 E3 30.19R VIDALIA MOSUNNY 73 57 56 CALM 30.17S EASTMAN FAIR 74 55 51 NE5 30.20S HAZLEHURST FAIR 74 55 50 CALM 30.16S ALMA MOSUNNY 72 53 51 N5 30.16R WAYCROSS SUNNY 76 56 51 CALM 30.15S JESUP FAIR 79 61 53 N3 30.16R BAXLEY FAIR 75 55 50 E3 30.16S BRUNSWICK SUNNY 79 59 50 NE6 30.15F SAINT SIMONS NOT AVBL $$ SCZ027-028-034-036>038-045-046-048>050-GAZ119-141-221700- ...LAKE AND SUPPLEMENTAL COASTAL OBSERVATIONS... STATION/POSITION TIME TEMP WIND PRES WAVE SWELL AIR SEA DIR/SP/G HT/PER HT/PER/DIR (UTC) (F) (DEG/KT/KT) (MB) (FT/S) (FT/S/D) UPR LAKE MARION NOT AVBL WINYAH BAY NOT AVBL LAKE MURRAY 1500 67 20/ 3/ 10 1022.4R ACE BASIN NERRS NOT AVBL FORT PULASKI 1500 71 78 50/ 17/ 22 1021.2R SAPELO ISLAND 1500 76 350/ 6 1020.0S $$ ANZ835-935-AMZ111-154-330-350-352-354-370-450-454-472-221700- ...C-MAN AND BUOY OBSERVATIONS... STATION/POSITION TIME TEMP WIND PRES WAVE SWELL AIR SEA DIR/SP/G HT/PER HT/PER/DIR (UTC) (F) (DEG/KT/KT) (MB) (FT/S) (FT/S/D) BUOY 41004 1550 69 76 30/ 19/ 23 1019.6R 6/ 6 2/10 BUOY 41008 1550 73 77 70/ 14/ 17 1020.5R 2/ 4 FOLLY BEACH CMAN 1600 70 50/ 14/ 17 1021.6R CAPERS NEARSHORE 1508 69 40/ 17/ 23 1021.3R FRIPP NEARSHORE 1500 71 50/ 17/ 19 1020.3R STATION/POSITION TIME TEMP WIND PRES WAVE SWELL AIR SEA DIR/SP/G HT/PER HT/PER/DIR (UTC) (F) (DEG/KT/KT) (MB) (FT/S) (FT/S/D) 5E ST. MARYS GA 1521 77 N/A 2/ 4 FRYING PAN BUOY 1550 68 74 40/ 17/ 21 1021.2R 5/ 6 BUOY 41025 1550 62 76 10/ 12/ 17 1020.9R 5/ 7 3/ 40/ 7 CAPE LOOKOUT NC 1600 65 10/ 10/ 12 1021.2R BUOY 41002 1550 74 75 50/ 16/ 19 1018.4R 4/ 6 3/240/ 6 BUOY 41010 1520 81 80 320/ 8/ 10 1018.5R ST AUGUSTINE FL 1600 72 74 360/ 14/ 15 1021.0R $$

USA.gov is the U.S. government's official web portal to all federal, state and local government web resources and services.